TimeEDT,TemperatureF,Dew PointF,Humidity,Sea Level PressureIn,VisibilityMPH,Wind Direction,Wind SpeedMPH,Gust SpeedMPH,PrecipitationIn,Events,Conditions,WindDirDegrees,DateUTC
12:58 AM,52.7,49.3,88,30.10,10.0,Calm,Calm,-,N/A,,Clear,0,2013-09-15 04:58:00
1:58 AM,51.6,49.1,91,30.10,10.0,Calm,Calm,-,N/A,,Clear,0,2013-09-15 05:58:00
2:58 AM,49.5,47.8,94,30.11,10.0,Calm,Calm,-,N/A,,Clear,0,2013-09-15 06:58:00
3:58 AM,48.0,46.9,96,30.11,10.0,Calm,Calm,-,N/A,,Clear,0,2013-09-15 07:58:00
4:58 AM,48.2,47.1,96,30.11,10.0,Calm,Calm,-,N/A,,Clear,0,2013-09-15 08:58:00
5:58 AM,47.5,46.9,98,30.10,10.0,Calm,Calm,-,N/A,,Clear,0,2013-09-15 09:58:00
6:58 AM,48.9,47.7,95,30.11,10.0,Calm,Calm,-,N/A,,Clear,0,2013-09-15 10:58:00
7:58 AM,49.5,47.8,94,30.12,10.0,Calm,Calm,-,N/A,,Clear,0,2013-09-15 11:58:00
8:58 AM,53.4,50.2,89,30.13,10.0,Calm,Calm,-,N/A,,Clear,0,2013-09-15 12:58:00
9:58 AM,61.0,54.5,79,30.14,10.0,South,4.6,-,N/A,,Clear,180,2013-09-15 13:58:00
10:58 AM,66.9,56.1,68,30.14,10.0,SSE,4.6,-,N/A,,Clear,160,2013-09-15 14:58:00
11:58 AM,71.8,56.5,58,30.12,10.0,South,4.6,-,N/A,,Clear,180,2013-09-15 15:58:00
12:58 PM,76.5,57.7,52,30.11,10.0,SSW,6.9,-,N/A,,Partly Cloudy,200,2013-09-15 16:58:00
1:58 PM,78.1,57.9,50,30.10,10.0,WSW,9.2,-,N/A,,Scattered Clouds,250,2013-09-15 17:58:00
2:58 PM,78.8,58.3,49,30.08,10.0,SSW,8.1,-,N/A,,Clear,200,2013-09-15 18:58:00
3:58 PM,79.0,58.1,49,30.06,10.0,South,8.1,-,N/A,,Clear,190,2013-09-15 19:58:00
4:58 PM,79.2,58.1,48,30.06,10.0,South,10.4,-,N/A,,Clear,190,2013-09-15 20:58:00
5:58 PM,77.9,58.5,51,30.06,10.0,SSW,9.2,-,N/A,,Clear,200,2013-09-15 21:58:00
6:58 PM,74.8,59.2,58,30.06,10.0,SSW,8.1,-,N/A,,Clear,200,2013-09-15 22:58:00
7:58 PM,70.7,59.0,66,30.06,10.0,SW,2.3,-,N/A,,Clear,230,2013-09-15 23:58:00
8:18 PM,68.0,59.0,73,30.06,10.0,Calm,Calm,-,N/A,Rain,Light Rain,0,2013-09-16 00:18:00
8:19 PM,68.0,59.0,73,30.06,10.0,Calm,Calm,-,N/A,,Clear,0,2013-09-16 00:19:00
8:21 PM,68.0,59.0,73,30.06,10.0,Calm,Calm,-,N/A,,Light Drizzle,0,2013-09-16 00:21:00
8:38 PM,68.0,60.8,78,30.06,10.0,SSE,3.5,-,N/A,,Scattered Clouds,160,2013-09-16 00:38:00
8:58 PM,66.2,59.9,80,30.06,10.0,Calm,Calm,-,N/A,,Scattered Clouds,0,2013-09-16 00:58:00
9:58 PM,64.6,59.4,83,30.06,10.0,Calm,Calm,-,N/A,,Scattered Clouds,0,2013-09-16 01:58:00
10:58 PM,63.5,58.8,85,30.07,10.0,SSW,4.6,-,N/A,,Clear,210,2013-09-16 02:58:00
11:58 PM,61.9,59.0,90,30.08,10.0,Calm,Calm,-,N/A,,Mostly Cloudy,0,2013-09-16 03:58:00